Tracking 19489 objects as of 22-Jan-2019
HD Live streaming from Space Station
objects crossing your sky now

ESSA 1 (OT-3)

Track ESSA 1 (OT-3) now!
10-day predictions
ESSA 1 (OT-3) is classified as:


NORAD ID: 1982
Int'l Code: 1966-008A
Perigee: 684.5 km
Apogee: 801.5 km
Inclination: 97.8 °
Period: 99.5 minutes
Semi major axis: 7113 km
RCS: 0.7257 m2 (medium)
Launch date: February 3, 1966
Source: United States (US)
Launch site: AIR FORCE EASTERN TEST RANGE (AFETR)
aabbcc
Your satellite tracking list
Your tracking list is empty




NASA's NSSDC Master Catalog

Two Line Element Set (TLE):
1  1982U 66008A   19022.10686683 -.00000036  00000-0  12483-5 0  9995
2  1982  97.7970 199.3669 0082272 152.6919 207.8636 14.46881017787709
Source of the keplerian elements: AFSPC